﻿測定場所 (Monitoring sites),日付 (Measurement date),時間 (Measurement time),線量率 最大値 (max) μGy/h,線量率 最小値 (min) μGy/h,線量率 平均値 (average) μGy/h,
足立 (Adachi),2014-11-23,23:01～24:00,0.0463,0.0399,0.0429,
足立 (Adachi),2014-11-23,22:01～23:00,0.0466,0.0396,0.0425,
足立 (Adachi),2014-11-23,21:01～22:00,0.0451,0.0401,0.0426,
足立 (Adachi),2014-11-23,20:01～21:00,0.0453,0.0391,0.0423,
足立 (Adachi),2014-11-23,19:01～20:00,0.0461,0.0395,0.0427,
足立 (Adachi),2014-11-23,18:01～19:00,0.0454,0.0392,0.0425,
足立 (Adachi),2014-11-23,17:01～18:00,0.0463,0.0391,0.0425,
足立 (Adachi),2014-11-23,16:01～17:00,0.0456,0.0385,0.0424,
足立 (Adachi),2014-11-23,15:01～16:00,0.0460,0.0392,0.0423,
足立 (Adachi),2014-11-23,14:01～15:00,0.0461,0.0401,0.0428,
足立 (Adachi),2014-11-23,13:01～14:00,0.0455,0.0397,0.0428,
足立 (Adachi),2014-11-23,12:01～13:00,0.0471,0.0391,0.0428,
足立 (Adachi),2014-11-23,11:01～12:00,0.0466,0.0403,0.0434,
足立 (Adachi),2014-11-23,10:01～11:00,0.0466,0.0419,0.0438,
足立 (Adachi),2014-11-23,09:01～10:00,0.0471,0.0401,0.0439,
足立 (Adachi),2014-11-23,08:01～09:00,0.0485,0.0405,0.0444,
足立 (Adachi),2014-11-23,07:01～08:00,0.0467,0.0413,0.0439,
足立 (Adachi),2014-11-23,06:01～07:00,0.0474,0.0407,0.0438,
足立 (Adachi),2014-11-23,05:01～06:00,0.0475,0.0401,0.0436,
足立 (Adachi),2014-11-23,04:01～05:00,0.0470,0.0416,0.0439,
足立 (Adachi),2014-11-23,03:01～04:00,0.0477,0.0408,0.0433,
足立 (Adachi),2014-11-23,02:01～03:00,0.0467,0.0412,0.0437,
足立 (Adachi),2014-11-23,01:01～02:00,0.0464,0.0399,0.0437,
足立 (Adachi),2014-11-23,00:01～01:00,0.0473,0.0407,0.0437,
足立 (Adachi),2014-11-22,23:01～24:00,0.0463,0.0413,0.0436,
足立 (Adachi),2014-11-22,22:01～23:00,0.0463,0.0409,0.0432,
足立 (Adachi),2014-11-22,21:01～22:00,0.0463,0.0407,0.0430,
足立 (Adachi),2014-11-22,20:01～21:00,0.0448,0.0390,0.0425,
足立 (Adachi),2014-11-22,19:01～20:00,0.0456,0.0396,0.0423,
足立 (Adachi),2014-11-22,18:01～19:00,0.0453,0.0388,0.0420,
足立 (Adachi),2014-11-22,17:01～18:00,0.0451,0.0386,0.0422,
足立 (Adachi),2014-11-22,16:01～17:00,0.0443,0.0398,0.0421,
足立 (Adachi),2014-11-22,15:01～16:00,0.0448,0.0388,0.0418,
足立 (Adachi),2014-11-22,14:01～15:00,0.0464,0.0383,0.0418,
足立 (Adachi),2014-11-22,13:01～14:00,0.0455,0.0387,0.0421,
足立 (Adachi),2014-11-22,12:01～13:00,0.0472,0.0395,0.0428,
足立 (Adachi),2014-11-22,11:01～12:00,0.0466,0.0400,0.0429,
足立 (Adachi),2014-11-22,10:01～11:00,0.0470,0.0403,0.0430,
足立 (Adachi),2014-11-22,09:01～10:00,0.0479,0.0402,0.0434,
足立 (Adachi),2014-11-22,08:01～09:00,0.0449,0.0405,0.0432,
足立 (Adachi),2014-11-22,07:01～08:00,0.0454,0.0409,0.0430,
足立 (Adachi),2014-11-22,06:01～07:00,0.0469,0.0401,0.0429,
足立 (Adachi),2014-11-22,05:01～06:00,0.0456,0.0393,0.0427,
足立 (Adachi),2014-11-22,04:01～05:00,0.0457,0.0397,0.0429,
足立 (Adachi),2014-11-22,03:01～04:00,0.0463,0.0404,0.0431,
足立 (Adachi),2014-11-22,02:01～03:00,0.0451,0.0406,0.0430,
足立 (Adachi),2014-11-22,01:01～02:00,0.0461,0.0396,0.0429,
足立 (Adachi),2014-11-22,00:01～01:00,0.0452,0.0390,0.0422,
足立 (Adachi),2014-11-21,23:01～24:00,0.0445,0.0386,0.0421,
足立 (Adachi),2014-11-21,22:01～23:00,0.0452,0.0385,0.0419,
足立 (Adachi),2014-11-21,21:01～22:00,0.0454,0.0378,0.0414,
足立 (Adachi),2014-11-21,20:01～21:00,0.0451,0.0386,0.0416,
足立 (Adachi),2014-11-21,19:01～20:00,0.0463,0.0391,0.0417,
足立 (Adachi),2014-11-21,18:01～19:00,0.0453,0.0389,0.0414,
足立 (Adachi),2014-11-21,17:01～18:00,0.0442,0.0392,0.0415,
足立 (Adachi),2014-11-21,16:01～17:00,0.0442,0.0367,0.0415,
足立 (Adachi),2014-11-21,15:01～16:00,0.0449,0.0388,0.0416,
足立 (Adachi),2014-11-21,14:01～15:00,0.0445,0.0388,0.0417,
足立 (Adachi),2014-11-21,13:01～14:00,0.0450,0.0395,0.0419,
足立 (Adachi),2014-11-21,12:01～13:00,0.0452,0.0390,0.0422,
足立 (Adachi),2014-11-21,11:01～12:00,0.0460,0.0398,0.0429,
足立 (Adachi),2014-11-21,10:01～11:00,0.0469,0.0403,0.0431,
足立 (Adachi),2014-11-21,09:01～10:00,0.0461,0.0399,0.0429,
足立 (Adachi),2014-11-21,08:01～09:00,0.0461,0.0390,0.0427,
足立 (Adachi),2014-11-21,07:01～08:00,0.0448,0.0374,0.0421,
足立 (Adachi),2014-11-21,06:01～07:00,0.0460,0.0399,0.0430,
足立 (Adachi),2014-11-21,05:01～06:00,0.0458,0.0390,0.0432,
足立 (Adachi),2014-11-21,04:01～05:00,0.0450,0.0387,0.0421,
足立 (Adachi),2014-11-21,03:01～04:00,0.0447,0.0393,0.0422,
足立 (Adachi),2014-11-21,02:01～03:00,0.0451,0.0389,0.0421,
足立 (Adachi),2014-11-21,01:01～02:00,0.0456,0.0392,0.0418,
足立 (Adachi),2014-11-21,00:01～01:00,0.0446,0.0380,0.0416,
足立 (Adachi),2014-11-20,23:01～24:00,0.0447,0.0396,0.0421,
足立 (Adachi),2014-11-20,22:01～23:00,0.0491,0.0401,0.0435,
足立 (Adachi),2014-11-20,21:01～22:00,0.0518,0.0440,0.0475,
足立 (Adachi),2014-11-20,20:01～21:00,0.0545,0.0473,0.0501,
足立 (Adachi),2014-11-20,19:01～20:00,0.0582,0.0478,0.0522,
足立 (Adachi),2014-11-20,18:01～19:00,0.0555,0.0487,0.0520,
足立 (Adachi),2014-11-20,17:01～18:00,0.0560,0.0487,0.0518,
足立 (Adachi),2014-11-20,16:01～17:00,0.0555,0.0482,0.0515,
足立 (Adachi),2014-11-20,15:01～16:00,0.0545,0.0476,0.0504,
足立 (Adachi),2014-11-20,14:01～15:00,0.0515,0.0427,0.0478,
足立 (Adachi),2014-11-20,13:01～14:00,0.0478,0.0405,0.0439,
足立 (Adachi),2014-11-20,12:01～13:00,0.0472,0.0413,0.0439,
足立 (Adachi),2014-11-20,11:01～12:00,0.0472,0.0406,0.0443,
足立 (Adachi),2014-11-20,10:01～11:00,0.0481,0.0403,0.0445,
足立 (Adachi),2014-11-20,09:01～10:00,0.0472,0.0413,0.0443,
足立 (Adachi),2014-11-20,08:01～09:00,0.0470,0.0400,0.0431,
足立 (Adachi),2014-11-20,07:01～08:00,0.0460,0.0395,0.0430,
足立 (Adachi),2014-11-20,06:01～07:00,0.0466,0.0407,0.0439,
足立 (Adachi),2014-11-20,05:01～06:00,0.0456,0.0392,0.0423,
足立 (Adachi),2014-11-20,04:01～05:00,0.0458,0.0396,0.0428,
足立 (Adachi),2014-11-20,03:01～04:00,0.0452,0.0397,0.0419,
足立 (Adachi),2014-11-20,02:01～03:00,0.0452,0.0382,0.0420,
足立 (Adachi),2014-11-20,01:01～02:00,0.0445,0.0393,0.0416,
足立 (Adachi),2014-11-20,00:01～01:00,0.0442,0.0387,0.0417,
足立 (Adachi),2014-11-19,23:01～24:00,0.0448,0.0378,0.0415,
足立 (Adachi),2014-11-19,22:01～23:00,0.0443,0.0384,0.0415,
足立 (Adachi),2014-11-19,21:01～22:00,0.0437,0.0384,0.0412,
足立 (Adachi),2014-11-19,20:01～21:00,0.0451,0.0377,0.0411,
足立 (Adachi),2014-11-19,19:01～20:00,0.0456,0.0400,0.0428,
足立 (Adachi),2014-11-19,18:01～19:00,0.0466,0.0378,0.0427,
足立 (Adachi),2014-11-19,17:01～18:00,0.0455,0.0399,0.0428,
足立 (Adachi),2014-11-19,16:01～17:00,0.0462,0.0398,0.0429,
足立 (Adachi),2014-11-19,15:01～16:00,0.0463,0.0403,0.0432,
足立 (Adachi),2014-11-19,14:01～15:00,0.0478,0.0394,0.0428,
足立 (Adachi),2014-11-19,13:01～14:00,0.0464,0.0406,0.0430,
足立 (Adachi),2014-11-19,12:01～13:00,0.0455,0.0398,0.0425,
足立 (Adachi),2014-11-19,11:01～12:00,0.0479,0.0399,0.0433,
足立 (Adachi),2014-11-19,10:01～11:00,0.0460,0.0393,0.0428,
足立 (Adachi),2014-11-19,09:01～10:00,0.0455,0.0405,0.0430,
足立 (Adachi),2014-11-19,08:01～09:00,0.0459,0.0391,0.0429,
足立 (Adachi),2014-11-19,07:01～08:00,0.0473,0.0402,0.0432,
足立 (Adachi),2014-11-19,06:01～07:00,0.0462,0.0392,0.0426,
足立 (Adachi),2014-11-19,05:01～06:00,0.0474,0.0407,0.0428,
足立 (Adachi),2014-11-19,04:01～05:00,0.0465,0.0388,0.0416,
足立 (Adachi),2014-11-19,03:01～04:00,0.0467,0.0381,0.0424,
足立 (Adachi),2014-11-19,02:01～03:00,0.0458,0.0392,0.0433,
足立 (Adachi),2014-11-19,01:01～02:00,0.0479,0.0405,0.0436,
足立 (Adachi),2014-11-19,00:01～01:00,0.0451,0.0402,0.0431,
足立 (Adachi),2014-11-18,23:01～24:00,0.0457,0.0399,0.0431,
足立 (Adachi),2014-11-18,22:01～23:00,0.0462,0.0400,0.0431,
足立 (Adachi),2014-11-18,21:01～22:00,0.0459,0.0402,0.0430,
足立 (Adachi),2014-11-18,20:01～21:00,0.0466,0.0407,0.0435,
足立 (Adachi),2014-11-18,19:01～20:00,0.0466,0.0397,0.0432,
足立 (Adachi),2014-11-18,18:01～19:00,0.0449,0.0397,0.0426,
足立 (Adachi),2014-11-18,17:01～18:00,0.0457,0.0407,0.0427,
足立 (Adachi),2014-11-18,16:01～17:00,0.0475,0.0398,0.0431,
足立 (Adachi),2014-11-18,15:01～16:00,0.0454,0.0403,0.0428,
足立 (Adachi),2014-11-18,14:01～15:00,0.0459,0.0394,0.0429,
足立 (Adachi),2014-11-18,13:01～14:00,0.0463,0.0393,0.0432,
足立 (Adachi),2014-11-18,12:01～13:00,0.0470,0.0400,0.0432,
足立 (Adachi),2014-11-18,11:01～12:00,0.0459,0.0397,0.0432,
足立 (Adachi),2014-11-18,10:01～11:00,0.0474,0.0394,0.0431,
足立 (Adachi),2014-11-18,09:01～10:00,0.0475,0.0394,0.0433,
足立 (Adachi),2014-11-18,08:01～09:00,0.0459,0.0400,0.0429,
足立 (Adachi),2014-11-18,07:01～08:00,0.0454,0.0388,0.0419,
足立 (Adachi),2014-11-18,06:01～07:00,0.0451,0.0394,0.0425,
足立 (Adachi),2014-11-18,05:01～06:00,0.0460,0.0396,0.0429,
足立 (Adachi),2014-11-18,04:01～05:00,0.0477,0.0411,0.0439,
足立 (Adachi),2014-11-18,03:01～04:00,0.0475,0.0406,0.0442,
足立 (Adachi),2014-11-18,02:01～03:00,0.0467,0.0415,0.0441,
足立 (Adachi),2014-11-18,01:01～02:00,0.0481,0.0413,0.0442,
足立 (Adachi),2014-11-18,00:01～01:00,0.0475,0.0407,0.0441,
足立 (Adachi),2014-11-17,23:01～24:00,0.0469,0.0402,0.0439,
足立 (Adachi),2014-11-17,22:01～23:00,0.0479,0.0408,0.0442,
足立 (Adachi),2014-11-17,21:01～22:00,0.0481,0.0421,0.0444,
足立 (Adachi),2014-11-17,20:01～21:00,0.0483,0.0410,0.0439,
足立 (Adachi),2014-11-17,19:01～20:00,0.0471,0.0406,0.0437,
足立 (Adachi),2014-11-17,18:01～19:00,0.0475,0.0408,0.0437,
足立 (Adachi),2014-11-17,17:01～18:00,0.0468,0.0396,0.0436,
足立 (Adachi),2014-11-17,16:01～17:00,0.0469,0.0403,0.0434,
足立 (Adachi),2014-11-17,15:01～16:00,0.0472,0.0392,0.0436,
足立 (Adachi),2014-11-17,14:01～15:00,0.0463,0.0408,0.0436,
足立 (Adachi),2014-11-17,13:01～14:00,0.0482,0.0396,0.0435,
足立 (Adachi),2014-11-17,12:01～13:00,0.0471,0.0408,0.0438,
足立 (Adachi),2014-11-17,11:01～12:00,0.0463,0.0414,0.0439,
足立 (Adachi),2014-11-17,10:01～11:00,0.0492,0.0407,0.0441,
足立 (Adachi),2014-11-17,09:01～10:00,0.0484,0.0406,0.0443,
足立 (Adachi),2014-11-17,08:01～09:00,0.0479,0.0416,0.0445,
足立 (Adachi),2014-11-17,07:01～08:00,0.0467,0.0400,0.0436,
足立 (Adachi),2014-11-17,06:01～07:00,0.0466,0.0415,0.0438,
足立 (Adachi),2014-11-17,05:01～06:00,0.0492,0.0416,0.0445,
足立 (Adachi),2014-11-17,04:01～05:00,0.0462,0.0404,0.0442,
足立 (Adachi),2014-11-17,03:01～04:00,0.0475,0.0413,0.0441,
足立 (Adachi),2014-11-17,02:01～03:00,0.0465,0.0409,0.0439,
足立 (Adachi),2014-11-17,01:01～02:00,0.0469,0.0410,0.0438,
足立 (Adachi),2014-11-17,00:01～01:00,0.0473,0.0400,0.0442,
